Regional Weather Roundup
Issued by NWS Newport/Morehead, NC

Current Version | Previous Version | Graphics & Text | Print | Product List | Glossary Off
Versions: 1 2 3 4 5 6 7 8 9 10 11 12 13 14 15 16 17 18 19 20 21 22 23 24 25 26 27 28 29 30 31 32 33 34 35 36 37 38 39 40 41 42 43 44 45 46 47 48 49 50

773
ASUS42 KMHX 301725
RWRMHX
WEATHER ROUNDUP FOR EASTERN NORTH CAROLINA
NATIONAL WEATHER SERVICE NEWPORT/MOREHEAD CITY NC
100 PM EDT FRI SEP 30 2016

NOTE: "FAIR" INDICATES FEW OR NO CLOUDS BELOW 12,000 FEET
WITH NO SIGNIFICANT WEATHER AND/OR OBSTRUCTIONS TO VISIBILITY

NCZ015>017-031-032-045>047-102-103-301800-
NORTH COAST

CITY           SKY/WX    TMP DP  RH WIND       PRES   REMARKS
EDENTON        MOSUNNY   84  74  72 E13       30.05F
ELIZABETH CITY PTSUNNY   81  70  69 SE9       30.07S
KITTY HAWK     MOSUNNY   85  78  82 E6        30.06F
MANTEO         CLOUDY    82  74  77 S8        30.07F

$$

NCZ045>047-081-094-103-104-301800-
CENTRAL COAST

CITY           SKY/WX    TMP DP  RH WIND       PRES   REMARKS
FRISCO         SUNNY     85  75  72 SE12      30.06F

$$

NCZ095-097-098-100-101-301800-
SOUTHERN COAST

CITY           SKY/WX    TMP DP  RH WIND       PRES   REMARKS
BEAUFORT       HVY RAIN  75  72  90 SW12      30.06S FOG
CEDAR ISLAND   NOT AVBL
JACKSONVILLE   CLOUDY    73  68  84 SE6       30.03F
PINEY ISLAND   CLOUDY   N/A N/A N/A S8        30.05S
WILMINGTON     CLOUDY    73  72  96 SE5       30.04R


$$

NCZ011>013-027>030-043-044-078>080-089-090>093-098-301800-
COASTAL PLAIN

CITY           SKY/WX    TMP DP  RH WIND       PRES   REMARKS
AHOSKIE        CLOUDY    77  73  88 E3        30.04F
CLINTON        CLOUDY    75  74  98 CALM      30.02F
ELIZABETHTOWN  MOSUNNY   77  75  93 SE6       30.01F
GOLDSBORO      LGT RAIN  77  75  94 SE6       30.02S
GREENVILLE     CLOUDY    79  79 100 SW3       30.05R
HAVELOCK       TSTM      78  72  81 S15G21    30.08R
KENANSVILLE    CLOUDY    75  72  88 E7        30.04S
KINSTON        LGT RAIN  77  72  83 S7        30.06R
NEW BERN       TSTM      78  74  87 SE6       30.05S FOG
RICHLANDS      NOT AVBL
ROCKY MOUNT    CLOUDY    79  75  87 VRB6      30.04F
WASHINGTON     CLOUDY    82  73  76 SE9       30.03S
WHITEVILLE     NOT AVBL

$$

AMZ130-135-150-152-154-156-158-170-250-252-270-ANZ085-086-088-633-658-670-301800-
MARINE OBSERVATIONS

STATION/POSITION TIME  TEMP    WIND        PRES    WAVE   SWELL
                       AIR SEA DIR/SP/G            HT/PER HT/PER
                 (UTC) (F)     (DEG/KT/KT) (MB)    (FT/S) (FT/S)
CHESAPEAKE LIGHT NOT AVBL
64 E VA BEACH    1650   76 75  140/  4/  4 1018.6    7/11   7/11
DUCK             1700   78 77  110/ 10/ 11 1017.8
2 E DUCK         1641      76                N/A     5/11   2/11
OREGON INLET     1700   80 78  100/  9/ 12 1018.1
13E OREGON INLT  1700      76                N/A     6/10   5/10
HATTERAS CG      1700   81 79  100/  8/ 12 1017.7
DIAMOND BUOY     1650   81 77  160/ 10/ 12 1018.1    5/10   5/10
CAPE LOOKOUT     1700   76        CALM     1017.4
BEAUFORT LAB     1700   75 77  170/  7/  9 1017.5
30 SE NEW RVR IN 1708   81 82  210/  8/ 14 1017.1
30 SE NEW RVR IN 1655      82                N/A     4/10   2/11
27 SE WRIGHTSVLE 1708   80 81  260/  6/ 10 1017.1
5 SE WRIGHTSVLE  1708   74 80  250/  8/ 14 1017.0
225 S CAPE HAT   1650   82 83  180/ 14/ 16 1018.9    4/10   3/10
41 SE CHARLESTON 1650   82 82  210/ 10/ 12 1015.9    3/ 6   3/ 6

$$




USA.gov is the U.S. government's official web portal to all federal, state and local government web resources and services.